User: anonymous   Login
Location: Adamstown South Public School
(32.9318°S, 151.7012°E)
Time: 12:08:16
(UTC+00:00)
Language:

YAOGAN 3 - Orbit

View from above orbital plane
View from above orbital plane
View from above satellite
View from above satellite

Ground track
Ground track

The orbit data is extracted from the following two-line orbital elements,

1 32289U 07055A   20227.20281339 -.00000025  00000-0  35728-5 0  9990
2 32289  97.9908 241.8362 0001465 108.5036 251.6344 14.81025581689534
Epoch (UTC): 14 August 2020 04:52:03
Eccentricity: 0.0001465
inclination: 97.9908°
perigee height: 625 km
apogee height: 627 km
right ascension of ascending node: 241.8362°
argument of perigee: 108.5036°
revolutions per day: 14.81025581
mean anomaly at epoch: 251.6344°
orbit number at epoch: 68953

The dashed part of the orbit path shows where the satellite is in the earth's shadow,  

DLR